Sharm El Sheikhintl, Egypt

9:21 PM EET on August 25, 2016 (GMT +0200)
Sharm El Sheikh International

Weather History for HESH - October, 2012

Change the Weather History Date:

Sunday, October 14, 2012

  Actual Average Record
Temperature  
Mean Temperature 86 °F -  
Max Temperature 95 °F - - ()
Min Temperature 78 °F - - ()
Cooling Degree Days 22    
Growing Degree Days 36 (Base 50)    
Moisture  
Dew Point 61 °F    
Average Humidity 44    
Maximum Humidity 65    
Minimum Humidity 28    
Precipitation  
Precipitation 0.00 in - - ()
Sea Level Pressure  
Sea Level Pressure 29.85 in    
Wind  
Wind Speed 10 mph ()    
Max Wind Speed 16 mph    
Max Gust Speed -    
T = Trace of Precipitation, MM = Missing Value Source: Averaged Metar Reports

Daily Weather History Graph

Daily Weather History Graph

Search for Another Location

Airport or City:

Trip Planner

Search our weather history database for the weather conditions in past years. The results will help you decide how hot, cold, wet, or windy it might be!

Date:

Astronomy

Oct. 14, 2012 Rise Set
Actual Time 5:42 AM EET 5:14 PM EET
Civil Twilight 5:18 AM EET 5:37 PM EET
Nautical Twilight 4:51 AM EET 6:04 PM EET
Astronomical Twilight 4:24 AM EET 6:32 PM EET
Moon 4:20 AM EET (10/14) 4:20 PM EET (10/14)
Length of Visible Light 12h 18m
Length of Day
11h 31m
Waning Crescent, 2% of the Moon is Illuminated
Oct 14
Waning Crescent
Oct 15
New
Oct 22
First Quarter
Oct 29
Full
Nov 7
Last Quarter

Hourly Weather History & Observations

Time (EET) Temp. Heat Index Dew Point Humidity Pressure Visibility Wind Dir Wind Speed Gust Speed Precip Events Conditions
12:00 AM 84.2 °F 83.5 °F 57.2 °F 40% 29.86 in - North 11.5 mph - N/A   Clear
1:00 AM 82.4 °F 83.4 °F 62.6 °F 51% 29.83 in - North 13.8 mph - N/A   Clear
2:00 AM 80.6 °F 82.3 °F 64.4 °F 58% 29.83 in - North 12.7 mph - N/A   Clear
3:00 AM 80.6 °F 82.3 °F 64.4 °F 58% 29.83 in - North 12.7 mph - N/A   Clear
4:00 AM 78.8 °F - 66.2 °F 65% 29.83 in - North 12.7 mph - N/A   Clear
6:00 AM 78.8 °F - 66.2 °F 65% 29.86 in - North 11.5 mph - N/A   Clear
7:00 AM 80.6 °F 83.2 °F 68.0 °F 65% 29.86 in - North 13.8 mph - N/A   Clear
8:00 AM 84.2 °F 87.3 °F 68.0 °F 58% 29.89 in - North 16.1 mph - N/A   Clear
9:00 AM 86.0 °F 88.2 °F 66.2 °F 51% 29.89 in - NNE 12.7 mph - N/A   Clear
10:00 AM 89.6 °F 92.2 °F 66.2 °F 46% 29.89 in - NNE 12.7 mph - N/A   Clear
11:00 AM 91.4 °F 93.2 °F 64.4 °F 41% 29.89 in - NNE 11.5 mph - N/A   Clear
12:00 PM 93.2 °F 93.3 °F 60.8 °F 34% 29.86 in - NNE 10.4 mph - N/A   Clear
1:00 PM 95.0 °F 94.4 °F 59.0 °F 30% 29.83 in - NNE 12.7 mph - N/A   Clear
2:00 PM 95.0 °F 93.7 °F 57.2 °F 28% 29.83 in - NNE 11.5 mph - N/A   Clear
3:00 PM 95.0 °F 93.7 °F 57.2 °F 28% 29.83 in - North 11.5 mph - N/A   Clear
4:00 PM 93.2 °F 91.9 °F 57.2 °F 30% 29.83 in - NNE 11.5 mph - N/A   Clear
5:00 PM 89.6 °F 88.1 °F 57.2 °F 33% 29.83 in - North 12.7 mph - N/A   Clear
6:00 PM 86.0 °F 84.5 °F 55.4 °F 35% 29.83 in - NNE 5.8 mph - N/A   Clear
7:00 PM 84.2 °F 82.8 °F 53.6 °F 35% 29.83 in - NNW 4.6 mph - N/A   Clear
8:00 PM 84.2 °F 82.8 °F 53.6 °F 35% 29.95 in - NW 4.6 mph - N/A   Clear
9:00 PM 84.2 °F 83.0 °F 55.4 °F 37% 29.86 in - North 6.9 mph - N/A   Clear
10:00 PM 84.2 °F 83.5 °F 57.2 °F 40% 29.86 in - North 10.4 mph - N/A   Clear
11:00 PM 84.2 °F 84.4 °F 60.8 °F 45% 29.86 in - North 11.5 mph - N/A   Clear